TimeEST,TemperatureF,Dew PointF,Humidity,Sea Level PressureIn,VisibilityMPH,Wind Direction,Wind SpeedMPH,Gust SpeedMPH,PrecipitationIn,Events,Conditions,WindDirDegrees,DateUTC
12:53 AM,70.0,66.9,90,29.94,10.0,South,11.5,20.7,N/A,,Mostly Cloudy,180,2013-01-31 05:53:00
1:23 AM,66.2,62.6,88,29.98,10.0,NNW,16.1,41.4,0.00,Rain,Light Rain,330,2013-01-31 06:23:00
1:26 AM,64.4,60.8,88,29.98,10.0,NNW,25.3,41.4,0.00,Rain,Light Rain,330,2013-01-31 06:26:00
1:34 AM,62.6,59.0,88,29.99,8.0,NNW,20.7,34.5,0.01,Rain,Light Rain,330,2013-01-31 06:34:00
1:53 AM,61.0,57.0,87,29.99,10.0,NW,13.8,20.7,0.02,Rain,Light Rain,320,2013-01-31 06:53:00
2:53 AM,60.1,57.9,93,30.00,4.0,NNW,5.8,-,0.03,Rain,Light Rain,340,2013-01-31 07:53:00
3:05 AM,60.8,57.2,88,30.00,7.0,North,5.8,-,0.01,Rain,Light Rain,350,2013-01-31 08:05:00
3:23 AM,60.8,57.2,88,29.99,10.0,NNW,4.6,-,0.01,,Overcast,340,2013-01-31 08:23:00
3:53 AM,60.1,57.0,90,29.99,10.0,North,5.8,-,0.01,,Overcast,350,2013-01-31 08:53:00
4:53 AM,61.0,59.0,93,30.00,10.0,North,4.6,-,0.00,Rain,Light Rain,350,2013-01-31 09:53:00
5:19 AM,60.8,59.0,94,30.01,9.0,North,6.9,-,0.02,Rain,Light Rain,350,2013-01-31 10:19:00
6:53 AM,62.1,55.0,78,30.06,10.0,NNW,11.5,18.4,N/A,,Overcast,340,2013-01-31 11:53:00
7:53 AM,60.1,48.9,67,30.09,10.0,NNW,10.4,-,N/A,,Clear,340,2013-01-31 12:53:00
8:53 AM,61.0,51.1,70,30.12,10.0,NNW,16.1,23.0,N/A,,Partly Cloudy,340,2013-01-31 13:53:00
9:53 AM,62.1,46.0,56,30.14,10.0,NNW,12.7,-,N/A,,Clear,330,2013-01-31 14:53:00
10:53 AM,63.0,44.1,50,30.16,10.0,NNW,16.1,-,N/A,,Clear,330,2013-01-31 15:53:00
11:53 AM,63.0,43.0,48,30.16,10.0,North,-9999.0,-,N/A,,Clear,0,2013-01-31 16:53:00
12:53 PM,63.0,43.0,48,30.15,10.0,North,15.0,19.6,N/A,,Unknown,350,2013-01-31 17:53:00
1:53 PM,63.0,33.1,33,30.15,10.0,North,11.5,21.9,N/A,,Clear,10,2013-01-31 18:53:00
2:53 PM,62.1,34.0,35,30.16,10.0,NW,15.0,21.9,N/A,,Clear,320,2013-01-31 19:53:00
3:53 PM,61.0,36.0,39,30.17,10.0,NNW,12.7,-,N/A,,Clear,340,2013-01-31 20:53:00
4:53 PM,59.0,35.1,41,30.17,10.0,NNW,11.5,-,N/A,,Clear,340,2013-01-31 21:53:00
5:53 PM,57.0,33.1,40,30.17,10.0,North,8.1,-,N/A,,Clear,350,2013-01-31 22:53:00
6:53 PM,54.0,32.0,43,30.18,10.0,NNW,8.1,-,N/A,,Clear,340,2013-01-31 23:53:00
7:53 PM,52.0,32.0,47,30.21,10.0,North,5.8,-,N/A,,Clear,350,2013-02-01 00:53:00
8:53 PM,51.1,35.1,54,30.22,10.0,North,3.5,-,N/A,,Clear,360,2013-02-01 01:53:00
9:53 PM,51.1,37.9,61,30.22,10.0,North,5.8,-,N/A,,Clear,360,2013-02-01 02:53:00
10:53 PM,51.1,39.0,63,30.23,10.0,North,5.8,-,N/A,,Clear,350,2013-02-01 03:53:00
11:53 PM,51.1,39.9,66,30.24,10.0,North,5.8,-,N/A,,Clear,350,2013-02-01 04:53:00